TimeEST,TemperatureF,Dew PointF,Humidity,Sea Level PressureIn,VisibilityMPH,Wind Direction,Wind SpeedMPH,Gust SpeedMPH,PrecipitationIn,Events,Conditions,WindDirDegrees,DateUTC
12:15 AM,37.4,37.4,100,30.11,1.0,ENE,4.6,-,0.00,,Overcast,60,2013-02-23 05:15:00
12:35 AM,37.4,37.4,100,30.10,1.0,NNE,5.8,-,0.00,,Light Drizzle,30,2013-02-23 05:35:00
12:55 AM,37.4,37.4,100,30.11,1.2,North,6.9,-,0.00,,Overcast,360,2013-02-23 05:55:00
1:15 AM,37.4,37.4,100,30.11,1.2,North,5.8,-,0.00,Rain,Heavy Rain,10,2013-02-23 06:15:00
1:35 AM,37.4,37.4,100,30.10,2.5,North,3.5,-,0.24,Rain,Light Rain,10,2013-02-23 06:35:00
1:55 AM,37.4,37.4,100,30.09,3.0,North,6.9,-,0.24,Rain,Light Rain,10,2013-02-23 06:55:00
2:15 AM,37.4,37.4,100,30.08,4.0,North,6.9,-,0.00,,Overcast,360,2013-02-23 07:15:00
2:35 AM,37.4,37.4,100,30.06,5.0,NNE,5.8,-,0.00,Rain,Light Rain,30,2013-02-23 07:35:00
2:55 AM,37.4,37.4,100,30.05,5.0,NE,5.8,-,0.01,Rain,Light Rain,40,2013-02-23 07:55:00
3:15 AM,37.4,37.4,100,30.02,6.0,ENE,4.6,-,0.00,,Overcast,60,2013-02-23 08:15:00
3:35 AM,37.4,37.4,100,30.02,5.0,NNE,5.8,-,0.00,Rain,Light Rain,20,2013-02-23 08:35:00
3:55 AM,37.4,37.4,100,30.03,4.0,NNE,5.8,-,0.01,Rain,Light Rain,20,2013-02-23 08:55:00
4:15 AM,37.4,37.4,100,30.02,3.0,NNE,4.6,-,0.03,Rain,Light Rain,30,2013-02-23 09:15:00
4:35 AM,37.4,37.4,100,30.02,4.0,North,10.4,-,0.05,Rain,Rain,10,2013-02-23 09:35:00
4:55 AM,37.4,37.4,100,30.00,2.5,NNE,9.2,-,0.19,Rain,Heavy Rain,20,2013-02-23 09:55:00
5:15 AM,37.4,37.4,100,30.01,1.8,NE,4.6,-,0.22,Rain,Heavy Rain,40,2013-02-23 10:15:00
5:35 AM,37.4,37.4,100,30.01,2.0,NNE,8.1,-,0.60,Rain,Heavy Rain,20,2013-02-23 10:35:00
5:55 AM,37.4,37.4,100,29.99,3.0,NE,6.9,-,0.88,Rain,Heavy Rain,40,2013-02-23 10:55:00
6:15 AM,37.4,37.4,100,29.98,2.5,NE,12.7,-,0.12,Rain,Heavy Rain,40,2013-02-23 11:15:00
6:35 AM,37.4,37.4,100,29.97,3.0,ENE,10.4,-,0.31,Rain,Heavy Rain,70,2013-02-23 11:35:00
7:15 AM,39.2,37.4,93,29.99,2.0,NE,4.6,-,0.26,Rain,Heavy Rain,50,2013-02-23 12:15:00
7:35 AM,37.4,37.4,100,29.99,1.0,NE,3.5,-,0.60,Rain,Heavy Rain,50,2013-02-23 12:35:00
7:55 AM,39.2,37.4,93,29.99,0.8,East,5.8,-,0.74,Rain,Rain,80,2013-02-23 12:55:00
8:15 AM,39.2,39.2,100,29.99,1.5,NE,5.8,-,0.13,Rain,Heavy Rain,40,2013-02-23 13:15:00
8:35 AM,39.2,39.2,100,29.97,1.0,ESE,8.1,-,0.46,Rain,Heavy Rain,110,2013-02-23 13:35:00
8:55 AM,39.2,39.2,100,29.99,5.0,NNW,3.5,-,0.62,,Overcast,330,2013-02-23 13:55:00
9:15 AM,39.2,39.2,100,29.98,9.0,NNE,5.8,-,0.00,,Overcast,20,2013-02-23 14:15:00
9:35 AM,39.2,39.2,100,29.99,10.0,Calm,Calm,-,0.00,,Overcast,0,2013-02-23 14:35:00
9:55 AM,39.2,39.2,100,29.97,5.0,NNE,5.8,-,0.00,,Overcast,20,2013-02-23 14:55:00
10:15 AM,41.0,39.2,93,29.96,2.5,NE,6.9,-,0.00,,Overcast,40,2013-02-23 15:15:00
10:35 AM,41.0,39.2,93,29.98,3.0,Calm,Calm,-,0.00,,Overcast,0,2013-02-23 15:35:00
10:55 AM,41.0,41.0,100,29.98,1.0,North,5.8,-,0.00,Rain,Light Rain,360,2013-02-23 15:55:00
11:15 AM,42.8,41.0,93,29.97,1.0,NE,3.5,-,0.00,,Overcast,40,2013-02-23 16:15:00
11:35 AM,42.8,41.0,93,29.97,0.8,NNE,4.6,-,0.00,,Overcast,20,2013-02-23 16:35:00
11:55 AM,42.8,42.8,100,29.97,1.2,North,3.5,-,0.00,,Overcast,350,2013-02-23 16:55:00
12:15 PM,42.8,42.8,100,29.96,1.5,North,3.5,-,0.00,,Light Drizzle,360,2013-02-23 17:15:00
12:55 PM,42.8,42.8,100,29.96,1.5,North,3.5,-,0.00,,Overcast,350,2013-02-23 17:55:00
1:15 PM,42.8,42.8,100,29.96,2.5,North,3.5,-,0.00,,Overcast,350,2013-02-23 18:15:00
1:35 PM,42.8,42.8,100,29.95,0.8,NNW,3.5,-,0.00,Rain,Light Rain,330,2013-02-23 18:35:00
1:55 PM,42.8,42.8,100,29.93,0.8,North,4.6,-,0.01,,Light Drizzle,10,2013-02-23 18:55:00
2:15 PM,42.8,42.8,100,29.93,1.2,Calm,Calm,-,0.00,,Light Drizzle,0,2013-02-23 19:15:00
2:35 PM,44.6,44.6,100,29.89,1.5,NE,4.6,-,0.00,,Light Drizzle,40,2013-02-23 19:35:00
2:55 PM,44.6,44.6,100,29.89,7.0,NE,3.5,-,0.00,,Overcast,50,2013-02-23 19:55:00
3:15 PM,44.6,44.6,100,29.90,10.0,Calm,Calm,-,0.00,,Overcast,0,2013-02-23 20:15:00
3:35 PM,44.6,44.6,100,29.90,10.0,Calm,Calm,-,0.00,,Overcast,0,2013-02-23 20:35:00
3:55 PM,44.6,44.6,100,29.91,10.0,NW,4.6,-,0.00,,Overcast,320,2013-02-23 20:55:00
4:15 PM,44.6,44.6,100,29.91,10.0,NW,4.6,-,0.00,,Overcast,310,2013-02-23 21:15:00
4:35 PM,44.6,44.6,100,29.88,10.0,Calm,Calm,-,0.00,,Overcast,0,2013-02-23 21:35:00
4:55 PM,44.6,44.6,100,29.89,10.0,NW,4.6,-,0.00,,Overcast,320,2013-02-23 21:55:00
5:15 PM,46.4,44.6,93,29.88,10.0,Calm,Calm,-,0.00,,Overcast,0,2013-02-23 22:15:00
5:35 PM,44.6,44.6,100,29.88,10.0,North,3.5,-,0.00,,Overcast,350,2013-02-23 22:35:00
5:55 PM,44.6,44.6,100,29.90,2.0,Calm,Calm,-,0.00,,Overcast,0,2013-02-23 22:55:00
6:15 PM,44.6,44.6,100,29.89,1.5,Calm,Calm,-,0.00,,Overcast,0,2013-02-23 23:15:00
6:35 PM,44.6,44.6,100,29.88,1.2,NNW,3.5,-,0.00,,Overcast,330,2013-02-23 23:35:00
6:55 PM,44.6,44.6,100,29.88,0.8,Calm,Calm,-,0.00,,Overcast,0,2013-02-23 23:55:00
7:15 PM,44.6,44.6,100,29.91,0.8,Calm,Calm,-,0.00,,Overcast,0,2013-02-24 00:15:00
7:35 PM,44.6,44.6,100,29.91,1.0,WNW,3.5,-,0.00,,Overcast,300,2013-02-24 00:35:00
7:55 PM,44.6,44.6,100,29.90,0.8,NNW,4.6,-,0.00,,Overcast,330,2013-02-24 00:55:00
8:15 PM,44.6,44.6,100,29.89,0.5,Calm,Calm,-,0.00,Fog,Fog,0,2013-02-24 01:15:00
8:35 PM,44.6,44.6,100,29.90,0.5,Calm,Calm,-,0.00,Fog,Fog,0,2013-02-24 01:35:00
8:55 PM,44.6,44.6,100,29.91,0.5,West,4.6,-,0.00,Fog,Fog,270,2013-02-24 01:55:00
9:15 PM,44.6,44.6,100,29.91,0.2,West,3.5,-,0.00,Fog,Fog,280,2013-02-24 02:15:00
9:35 PM,44.6,44.6,100,29.91,0.2,Calm,Calm,-,0.00,Fog,Fog,0,2013-02-24 02:35:00
9:55 PM,44.6,44.6,100,29.90,0.2,Calm,Calm,-,0.00,Fog,Fog,0,2013-02-24 02:55:00
10:15 PM,44.6,44.6,100,29.86,0.2,ESE,3.5,-,0.00,Fog,Fog,120,2013-02-24 03:15:00
10:35 PM,44.6,44.6,100,29.87,0.2,Calm,Calm,-,0.00,Fog,Fog,0,2013-02-24 03:35:00
10:55 PM,44.6,44.6,100,29.88,0.2,WNW,5.8,-,0.00,Fog,Fog,290,2013-02-24 03:55:00
11:15 PM,44.6,44.6,100,29.87,0.2,Calm,Calm,-,0.00,Fog,Fog,0,2013-02-24 04:15:00
11:35 PM,44.6,44.6,100,29.87,0.2,Calm,Calm,-,0.00,Fog,Fog,0,2013-02-24 04:35:00
11:55 PM,44.6,44.6,100,29.88,0.2,Calm,Calm,-,0.00,Fog,Fog,0,2013-02-24 04:55:00